Date String (YYYY-MM-DD hh:mm:ss) UTC,Instrument flags,Ambient pressure (hPa),Sample flow (lpm),Bypass flow (lpm),Sample temperature (°C),Ambient temperature (°C),ASC tube jacket temperature (°C),LED temperature (°C),Box temperature (°C),Sample RH (%),Span deviation,Mass concentration (μg/m³),Mass concentration (μg/m³),Mass concentration (μg/m³)
DateTimeUTC,F1_M11,P_M11,Q1_M11,Q2_M11,T1_M11,T2_M11,T3_M11,T4_M11,T5_M11,U1_M11,ZSPAN_M11,X0_M11,X2_M11,X1_M11
2022-07-16 04:00:00,,0831.9,4.99,0.00,30.2,27.3,00.0,38.4,31.3,33.9,0000.0,0013.82,0005.63,0004.64
2022-07-16 04:01:00,,0831.9,4.99,0.00,30.2,27.5,00.0,38.4,31.3,34.1,0000.0,0013.03,0005.56,0004.62
2022-07-16 04:02:00,,0832.0,5.00,0.00,30.2,27.6,00.0,38.5,31.4,34.1,0000.0,0012.58,0005.52,0004.61
2022-07-16 04:03:00,,0832.0,5.00,0.00,30.2,27.8,00.0,38.5,31.4,34.3,0000.0,0013.23,0005.54,0004.62
2022-07-16 04:04:00,,0831.9,4.99,0.00,30.2,28.0,00.0,38.5,31.5,34.4,0000.0,0013.21,0005.54,0004.61
2022-07-16 04:05:00,,0831.9,5.01,0.00,30.2,28.2,00.0,38.6,31.5,34.5,0000.0,0012.82,0005.50,0004.61
2022-07-16 04:06:00,,0831.9,5.01,0.00,30.2,28.3,00.0,38.6,31.6,34.4,0000.0,0012.48,0005.43,0004.60
2022-07-16 04:07:00,,0832.0,4.99,0.00,30.2,28.4,00.0,38.6,31.7,34.4,0000.0,0012.40,0005.40,0004.59
2022-07-16 04:08:00,,0832.0,5.01,0.00,30.2,28.5,00.0,38.6,31.7,34.8,0000.0,0011.51,0005.36,0004.59
2022-07-16 04:09:00,,0832.1,4.99,0.00,30.2,28.6,00.0,38.7,31.7,34.7,0000.0,0011.17,0005.35,0004.60
2022-07-16 04:10:00,,0832.1,5.00,0.00,30.2,28.7,00.0,38.7,31.8,34.7,0000.0,0011.31,0005.35,0004.60
2022-07-16 04:11:00,,0832.0,5.00,0.00,30.2,28.7,00.0,38.7,31.8,34.7,0000.0,0011.77,0005.36,0004.62
2022-07-16 04:12:00,,0832.1,5.01,0.00,30.3,28.2,00.0,38.7,31.8,34.7,0000.0,0011.68,0005.35,0004.63
2022-07-16 04:13:00,,0832.1,4.99,0.00,30.2,27.5,00.0,38.6,31.7,34.8,0000.0,0011.67,0005.40,0004.64
2022-07-16 04:14:00,,0832.0,5.00,0.00,30.2,27.1,00.0,38.6,31.6,34.9,0000.0,0010.72,0005.40,0004.64
2022-07-16 04:15:00,,0832.1,4.99,0.00,30.1,27.1,00.0,38.6,31.4,35.3,0000.0,0012.17,0005.41,0004.65
2022-07-16 04:16:00,,0832.1,5.00,0.00,30.2,27.2,00.0,38.6,31.5,35.3,0000.0,0013.45,0005.44,0004.64
2022-07-16 04:17:00,,0832.2,5.00,0.00,30.5,27.4,00.0,38.6,31.7,34.8,0000.0,0015.57,0005.44,0004.63
2022-07-16 04:18:00,,0832.3,5.00,0.00,30.8,27.6,00.0,38.6,31.8,34.2,0000.0,0015.70,0005.48,0004.63
2022-07-16 04:19:00,,0832.3,5.00,0.00,30.9,27.8,00.0,38.6,31.8,34.0,0000.0,0015.71,0005.47,0004.62
2022-07-16 04:20:00,,0832.3,5.00,0.00,31.0,27.9,00.0,38.7,31.8,33.9,0000.0,0015.92,0005.51,0004.61
2022-07-16 04:21:00,,0832.3,5.01,0.00,31.0,28.1,00.0,38.8,31.8,33.8,0000.0,0016.17,0005.51,0004.59
2022-07-16 04:22:00,,0832.4,4.99,0.00,31.0,28.3,00.0,38.9,31.9,33.8,0000.0,0015.90,0005.47,0004.55
2022-07-16 04:23:00,,0832.3,5.00,0.00,31.1,28.4,00.0,38.9,31.9,33.8,0000.0,0015.96,0005.46,0004.51
2022-07-16 04:24:00,,0832.4,5.00,0.00,31.1,28.5,00.0,39.0,31.9,33.9,0000.0,0016.03,0005.43,0004.47
2022-07-16 04:25:00,,0832.3,5.00,0.00,31.1,28.6,00.0,39.1,32.0,33.9,0000.0,0015.50,0005.39,0004.45
2022-07-16 04:26:00,,0832.3,5.00,0.00,31.1,28.7,00.0,39.1,32.0,34.0,0000.0,0014.73,0005.37,0004.42
2022-07-16 04:27:00,,0832.3,4.99,0.00,31.1,28.5,00.0,39.1,32.0,34.3,0000.0,0012.44,0005.31,0004.40
2022-07-16 04:28:00,,0832.3,5.01,0.00,31.0,27.8,00.0,39.1,32.0,34.4,0000.0,0010.17,0005.31,0004.38
2022-07-16 04:29:00,,0832.4,5.01,0.00,31.0,27.2,00.0,39.0,31.9,34.6,0000.0,0010.53,0005.26,0004.37
2022-07-16 04:30:00,,0832.3,4.98,0.00,30.9,27.1,00.0,39.1,31.7,35.0,0000.0,0012.42,0005.24,0004.36
2022-07-16 04:31:00,,0832.3,5.02,0.00,30.8,27.1,00.0,39.1,31.6,35.2,0000.0,0013.32,0005.20,0004.33
2022-07-16 04:32:00,,0832.3,4.98,0.00,31.0,27.3,00.0,39.0,31.8,34.8,0000.0,0013.13,0005.16,0004.31
2022-07-16 04:33:00,,0832.3,5.01,0.00,31.1,27.5,00.0,39.0,31.9,34.5,0000.0,0013.65,0005.19,0004.30
2022-07-16 04:34:00,,0832.3,5.00,0.00,31.2,27.7,00.0,39.1,31.9,34.3,0000.0,0014.31,0005.21,0004.29
2022-07-16 04:35:00,,0832.4,5.00,0.00,31.2,27.9,00.0,39.1,31.9,34.3,0000.0,0014.58,0005.25,0004.28
2022-07-16 04:36:00,,0832.4,5.00,0.00,31.2,28.0,00.0,39.1,31.9,34.2,0000.0,0014.68,0005.24,0004.26
2022-07-16 04:37:00,,0832.5,5.00,0.00,31.2,28.2,00.0,39.2,31.9,34.2,0000.0,0014.48,0005.17,0004.23
2022-07-16 04:38:00,,0832.5,5.01,0.00,31.2,28.3,00.0,39.2,32.0,34.2,0000.0,0014.32,0005.14,0004.21
2022-07-16 04:39:00,,0832.5,5.01,0.00,31.2,28.5,00.0,39.3,32.0,34.3,0000.0,0014.35,0005.15,0004.19
2022-07-16 04:40:00,,0832.5,5.00,0.00,31.2,28.6,00.0,39.3,32.0,34.3,0000.0,0014.60,0005.18,0004.16
2022-07-16 04:41:00,,0832.5,5.00,0.00,31.1,28.7,00.0,39.3,32.1,34.3,0000.0,0013.64,0005.19,0004.14
2022-07-16 04:42:00,,0832.6,5.00,0.00,31.1,28.8,00.0,39.4,32.1,34.4,0000.0,0012.01,0005.23,0004.13
2022-07-16 04:43:00,,0832.6,5.01,0.00,31.1,28.6,00.0,39.3,32.1,34.4,0000.0,0012.47,0005.27,0004.14
2022-07-16 04:44:00,,0832.6,4.99,0.00,31.1,27.8,00.0,39.3,32.0,34.4,0000.0,0012.31,0005.26,0004.13
2022-07-16 04:45:00,,0832.5,5.01,0.00,31.0,27.2,00.0,39.2,31.9,34.6,0000.0,0011.30,0005.24,0004.14
2022-07-16 04:46:00,,0832.5,5.00,0.00,30.9,27.1,00.0,39.2,31.8,35.0,0000.0,0012.25,0005.27,0004.16
2022-07-16 04:47:00,,0832.5,5.01,0.00,30.9,27.2,00.0,39.2,31.7,35.1,0000.0,0012.13,0005.23,0004.16
2022-07-16 04:48:00,,0832.5,4.99,0.00,31.0,27.3,00.0,39.2,31.8,34.7,0000.0,0012.42,0005.26,0004.18
2022-07-16 04:49:00,,0832.5,5.01,0.00,31.1,27.5,00.0,39.2,31.8,34.4,0000.0,0012.86,0005.32,0004.19
2022-07-16 04:50:00,,0832.5,4.99,0.00,31.1,27.7,00.0,39.2,31.8,34.2,0000.0,0013.20,0005.31,0004.19
2022-07-16 04:51:00,,0832.5,4.99,0.00,31.1,27.9,00.0,39.2,31.9,34.3,0000.0,0012.82,0005.28,0004.19
2022-07-16 04:52:00,,0832.5,5.00,0.00,31.1,28.1,00.0,39.2,31.9,34.4,0000.0,0012.56,0005.27,0004.22
2022-07-16 04:53:00,,0832.5,5.00,0.00,31.1,28.2,00.0,39.3,31.9,34.5,0000.0,0012.37,0005.22,0004.23
2022-07-16 04:54:00,,0832.5,5.00,0.00,31.0,28.4,00.0,39.3,32.0,34.5,0000.0,0012.21,0005.19,0004.22
2022-07-16 04:55:00,,0832.5,5.01,0.00,31.0,28.5,00.0,39.3,32.0,34.6,0000.0,0012.31,0005.26,0004.23
2022-07-16 04:56:00,,0832.5,5.00,0.00,31.0,28.6,00.0,39.3,32.0,34.6,0000.0,0012.85,0005.34,0004.24
2022-07-16 04:57:00,,0832.6,5.00,0.00,31.0,28.7,00.0,39.4,32.1,34.7,0000.0,0012.07,0005.31,0004.23
2022-07-16 04:58:00,,0832.6,5.00,0.00,31.0,28.8,00.0,39.4,32.1,34.7,0000.0,0012.65,0005.33,0004.24
2022-07-16 04:59:00,,0832.6,5.00,0.00,31.0,28.6,00.0,39.3,32.1,34.7,0000.0,0012.66,0005.32,0004.25
